944 
ASUS46 KSEW 200710
RWRWA 

WASHINGTON REGIONAL WEATHER ROUNDUP
NATIONAL WEATHER SERVICE SEATTLE WA
1200 AM PDT WED MAR 20 2019

NOTE:"FAIR" INDICATES FEW OR NO CLOUDS BELOW 12,000 FEET WITH NO 
SIGNIFICANT WEATHER AND/OR OBSTRUCTIONS TO VISIBILITY.

WAZ507-509-555>559-200800-
SEATTLE, TACOMA, EVERETT, AND VICINITY
  
CITY           SKY/WX    TMP DP  RH WIND       PRES   REMARKS
EVERETT        CLEAR     53  26  35 CALM      29.98S                  
BOEING FIELD   CLEAR     66  21  18 E9        29.95R                  
RENTON         CLEAR     68  24  19 E14G24    29.94S                  
SEATAC AIRPORT CLEAR     66  23  19 E18       29.95S                  
JBLM-MCCHORD   CLEAR     43  37  79 CALM      29.94S                  
PUYALLUP       FAIR      45  32  61 CALM      29.94S                  
BREMERTON      CLEAR     47  28  47 CALM      29.96S                  
JBLM-FT LEWIS  CLEAR     50  33  51 NE3       29.93S                  
TACOMA NARROWS CLEAR     55  25  31 N3        29.95S                  
$$
 
WAZ001-503-506-510-514-515-200800-
NORTH INTERIOR
  
CITY           SKY/WX    TMP DP  RH WIND       PRES   REMARKS
BELLINGHAM     CLEAR     43  37  79 CALM      29.98R                  
FRIDAY HARBOR  CLEAR     44  32  62 VRB3      29.97S                  
EASTSOUND      CLEAR     43  37  81 CALM      29.98R                  
PORT ANGELES   CLEAR     39  32  76 SW3       29.94S                  
EDIZ HOOK      FAIR      46  38  75 SW5       29.93S                  
PORT TOWNSEND  FAIR      39  34  81 CALM      29.95S                  
NAS WHIDBEY    PTCLDY    49  36  61 E5        30.00S                  
ARLINGTON      CLEAR     48  31  51 CALM      29.98R                  
BURLINGTON     CLEAR     45  36  70 CALM      29.98R                  
$$
 
WAZ020-022-039-040-504-511-512-200800-
SOUTHWEST INTERIOR
  
CITY           SKY/WX    TMP DP  RH WIND       PRES   REMARKS
SHELTON        CLEAR     56  31  38 N6        29.92S                  
OLYMPIA        CLEAR     40  31  70 CALM      29.92S                  
CHEHALIS       FAIR      45  37  76 CALM      29.92R                  
KELSO          CLEAR     47  34  60 NW3       29.91S                  
VANCOUVER      CLEAR     47  33  58 CALM      29.91S                  
SCAPPOOSE, OR  CLEAR     48  36  63 W6        29.92S                  
PORTLAND, OR   PTCLDY    52  35  52 S9        29.92R                  
$$
 
WAZ021-516-517-200800-
WASHINGTON COAST
  
CITY           SKY/WX    TMP DP  RH WIND       PRES   REMARKS
FORKS          CLEAR     44  35  70 CALM      29.89R                  
HOQUIAM        CLEAR     63  29  27 NE15G22   29.86S                  
ASTORIA, OR    PTCLDY    56  36  47 N8        29.85R                  
$$
 
WAZ019-023-024-040-567>569-200800-
CASCADE MOUNTAINS AND COLUMBIA GORGE
  
CITY           SKY/WX    TMP DP  RH WIND       PRES   REMARKS
STAMPEDE PASS  NOT AVBL                                               
TROUTDALE, OR  CLEAR     55  35  47 E24G33    29.91S                  
HOOD RIVER, OR SUNNY     36  32  87 MISG      30.11S                  
THE DALLES, OR CLEAR     40  33  76 E3        30.11F                  
$$

WAZ026-027-041>044-520-521-200800-
EAST SLOPES
  
CITY           SKY/WX    TMP DP  RH WIND       PRES   REMARKS
OMAK           CLEAR     37  29  72 CALM      30.16S                  
WENATCHEE      CLEAR     40  29  64 W10       30.14S                  
ELLENSBURG     CLEAR     37  28  70 CALM      30.12S                  
YAKIMA         CLEAR     40  29  64 W10       30.13S                  
SUNNYSIDE ARPT SUNNY     35  33  92 CALM      30.12                   
YAKIMA TC      FAIR      40  29  63 CALM      30.11S                  
$$

WAZ028-034-035-200800-
COLUMBIA BASIN
  
CITY           SKY/WX    TMP DP  RH WIND       PRES   REMARKS
EPHRATA        CLEAR     42  26  53 NW3       30.11R                  
MOSES LAKE     CLEAR     39  28  64 NW5       30.12S                  
PASCO          CLEAR     35  32  88 N5        30.12F                  
RICHLAND ARPT  SUNNY     40  35  83 CALM      30.12S                  
HERMISTON, OR  CLEAR     36  32  85 E5        30.09S                  
$$

WAZ036>038-200800-
NORTHEAST WASHINGTON
  
CITY           SKY/WX    TMP DP  RH WIND       PRES   REMARKS
SPOKANE GEIGER CLEAR     47  26  44 E10       30.13R                  
SPOKANE FELTS  CLEAR     38  32  79 CALM      30.14R                  
FAIRCHILD AFB  CLEAR     44  27  51 NE8       30.12R                  
COEURDALENE,ID CLEAR     38  28  67 E9        30.15S                  
DEER PARK      CLEAR     41  24  51 NE8       30.13S                  
$$

WAZ029>033-200800-
SOUTHEAST WASHINGTON
  
CITY           SKY/WX    TMP DP  RH WIND       PRES   REMARKS
PULLMAN        CLEAR     39  27  62 CALM      30.13S                  
LEWISTON, ID   CLEAR     43  31  62 S3        30.12S                  
WALLA WALLA    CLEAR     51  34  52 E3        30.09S                  
PENDLETON, OR  CLEAR     37  34  89 E7        30.07F                  
$$